Time,TemperatureF,DewpointF,PressureIn,WindDirection,WindDirectionDegrees,WindSpeedMPH,WindSpeedGustMPH,Humidity,HourlyPrecipIn,Conditions,Clouds,dailyrainin,SoftwareType,DateUTC
2013-02-24 00:00:00,31.7,29.1,29.97,North,350,0.0,0.0,90,0.00,,,0.19,Wunderground v.1.13,2013-02-24 05:00:00,
2013-02-24 00:01:00,31.7,29.1,29.97,North,350,0.0,0.0,90,0.00,,,0.19,Wunderground v.1.13,2013-02-24 05:01:00,
2013-02-24 00:02:00,31.7,29.1,29.97,North,349,0.0,0.0,90,0.00,,,0.19,Wunderground v.1.13,2013-02-24 05:02:00,
2013-02-24 00:07:00,31.7,29.1,29.97,North,350,0.0,0.0,90,0.00,,,0.00,Wunderground v.1.13,2013-02-24 05:07:00,
2013-02-24 00:08:00,31.7,29.1,29.97,North,350,0.0,0.0,90,0.00,,,0.00,Wunderground v.1.13,2013-02-24 05:08:00,
2013-02-24 00:14:00,31.7,29.1,29.97,North,349,0.0,0.0,90,0.00,,,0.00,Wunderground v.1.13,2013-02-24 05:14:00,
2013-02-24 00:19:00,31.8,29.2,29.96,North,350,0.0,0.0,90,0.00,,,0.01,Wunderground v.1.13,2013-02-24 05:19:00,
2013-02-24 00:25:00,31.7,29.1,29.96,North,350,0.0,0.0,90,0.00,,,0.01,Wunderground v.1.13,2013-02-24 05:25:00,
2013-02-24 00:31:00,31.8,29.2,29.95,North,349,0.0,0.0,90,0.00,,,0.01,Wunderground v.1.13,2013-02-24 05:31:00,
2013-02-24 00:36:00,31.8,29.2,29.95,North,349,0.0,0.0,90,0.00,,,0.01,Wunderground v.1.13,2013-02-24 05:36:00,
2013-02-24 00:42:00,31.7,29.1,29.95,North,349,0.0,0.0,90,0.00,,,0.02,Wunderground v.1.13,2013-02-24 05:42:00,
2013-02-24 00:47:00,31.8,29.2,29.95,North,349,0.0,0.0,90,0.00,,,0.02,Wunderground v.1.13,2013-02-24 05:47:00,
2013-02-24 00:53:00,31.7,29.1,29.95,North,349,0.0,0.0,90,0.00,,,0.02,Wunderground v.1.13,2013-02-24 05:53:00,
2013-02-24 00:59:00,31.7,29.1,29.95,North,349,0.0,0.0,90,0.00,,,0.02,Wunderground v.1.13,2013-02-24 05:59:00,
2013-02-24 01:05:00,31.7,29.1,29.95,North,349,0.0,0.0,90,0.00,,,0.02,Wunderground v.1.13,2013-02-24 06:05:00,
2013-02-24 01:11:00,31.7,29.1,29.95,North,349,0.0,0.0,90,0.00,,,0.02,Wunderground v.1.13,2013-02-24 06:11:00,
2013-02-24 01:17:00,31.7,29.1,29.94,North,349,0.0,0.0,90,0.00,,,0.02,Wunderground v.1.13,2013-02-24 06:17:00,
2013-02-24 01:22:00,31.7,29.1,29.93,North,349,0.0,0.0,90,0.00,,,0.02,Wunderground v.1.13,2013-02-24 06:22:00,
2013-02-24 01:28:00,31.6,29.0,29.94,North,349,0.0,0.0,90,0.00,,,0.02,Wunderground v.1.13,2013-02-24 06:28:00,
2013-02-24 01:33:00,31.7,29.1,29.93,North,349,0.0,0.0,90,0.00,,,0.02,Wunderground v.1.13,2013-02-24 06:33:00,
2013-02-24 01:39:00,31.7,29.1,29.93,North,349,0.0,0.0,90,0.00,,,0.02,Wunderground v.1.13,2013-02-24 06:39:00,
2013-02-24 01:45:00,31.7,29.1,29.93,North,349,0.0,0.0,90,0.00,,,0.02,Wunderground v.1.13,2013-02-24 06:45:00,
2013-02-24 01:50:00,31.7,29.1,29.93,North,349,0.0,0.0,90,0.00,,,0.02,Wunderground v.1.13,2013-02-24 06:50:00,
2013-02-24 01:56:00,31.8,29.2,29.93,North,349,0.0,0.0,90,0.00,,,0.02,Wunderground v.1.13,2013-02-24 06:56:00,
2013-02-24 02:01:00,31.9,29.3,29.93,North,349,0.0,0.0,90,0.00,,,0.02,Wunderground v.1.13,2013-02-24 07:01:00,
2013-02-24 02:07:00,31.9,29.3,29.92,North,349,0.0,0.0,90,0.00,,,0.02,Wunderground v.1.13,2013-02-24 07:07:00,
2013-02-24 02:12:00,31.9,29.3,29.92,North,349,0.0,0.0,90,0.00,,,0.02,Wunderground v.1.13,2013-02-24 07:12:00,
2013-02-24 02:17:00,31.9,29.3,29.92,North,349,0.0,0.0,90,0.00,,,0.02,Wunderground v.1.13,2013-02-24 07:17:00,
2013-02-24 02:22:00,31.9,29.3,29.91,North,349,0.0,0.0,90,0.00,,,0.02,Wunderground v.1.13,2013-02-24 07:22:00,
2013-02-24 02:27:00,31.9,29.3,29.91,North,349,0.0,0.0,90,0.00,,,0.02,Wunderground v.1.13,2013-02-24 07:27:00,
2013-02-24 02:32:00,31.9,29.3,29.90,North,349,0.0,0.0,90,0.00,,,0.02,Wunderground v.1.13,2013-02-24 07:32:00,
2013-02-24 02:38:00,32.0,29.4,29.90,North,349,0.0,0.0,90,0.00,,,0.02,Wunderground v.1.13,2013-02-24 07:38:00,
2013-02-24 02:43:00,32.0,29.4,29.90,North,349,0.0,0.0,90,0.00,,,0.02,Wunderground v.1.13,2013-02-24 07:43:00,
2013-02-24 02:48:00,32.0,29.4,29.90,North,349,0.0,0.0,90,0.00,,,0.02,Wunderground v.1.13,2013-02-24 07:48:00,
2013-02-24 02:53:00,32.1,29.5,29.90,North,349,0.0,0.0,90,0.00,,,0.02,Wunderground v.1.13,2013-02-24 07:53:00,
2013-02-24 02:58:00,32.0,29.4,29.89,North,349,0.0,0.0,90,0.00,,,0.02,Wunderground v.1.13,2013-02-24 07:58:00,
2013-02-24 03:03:00,32.1,29.5,29.89,North,349,0.0,0.0,90,0.00,,,0.02,Wunderground v.1.13,2013-02-24 08:03:00,
2013-02-24 03:08:00,32.1,29.5,29.89,North,349,0.0,0.0,90,0.00,,,0.02,Wunderground v.1.13,2013-02-24 08:08:00,
2013-02-24 03:13:00,32.1,29.2,29.89,North,349,0.0,0.0,89,0.00,,,0.02,Wunderground v.1.13,2013-02-24 08:13:00,
2013-02-24 03:18:00,32.1,29.5,29.89,North,349,0.0,0.0,90,0.00,,,0.02,Wunderground v.1.13,2013-02-24 08:18:00,
2013-02-24 03:23:00,32.3,29.7,29.89,North,349,0.0,0.0,90,0.00,,,0.02,Wunderground v.1.13,2013-02-24 08:23:00,
2013-02-24 03:28:00,32.5,29.9,29.89,North,349,0.0,0.0,90,0.00,,,0.02,Wunderground v.1.13,2013-02-24 08:28:00,
2013-02-24 03:33:00,32.5,29.6,29.89,North,349,0.0,0.0,89,0.00,,,0.02,Wunderground v.1.13,2013-02-24 08:33:00,
2013-02-24 03:38:00,32.4,29.5,29.88,North,349,0.0,0.0,89,0.00,,,0.02,Wunderground v.1.13,2013-02-24 08:38:00,
2013-02-24 03:43:00,32.4,29.5,29.88,North,349,0.0,0.0,89,0.00,,,0.03,Wunderground v.1.13,2013-02-24 08:43:00,
2013-02-24 03:48:00,32.4,29.5,29.88,North,349,0.0,0.0,89,0.00,,,0.03,Wunderground v.1.13,2013-02-24 08:48:00,
2013-02-24 03:53:00,32.4,29.5,29.88,North,349,0.0,0.0,89,0.00,,,0.03,Wunderground v.1.13,2013-02-24 08:53:00,
2013-02-24 03:58:00,32.5,29.6,29.88,North,349,0.0,0.0,89,0.00,,,0.03,Wunderground v.1.13,2013-02-24 08:58:00,
2013-02-24 04:03:00,32.5,29.6,29.88,North,349,0.0,0.0,89,0.00,,,0.03,Wunderground v.1.13,2013-02-24 09:03:00,
2013-02-24 04:08:00,32.4,29.2,29.88,North,349,0.0,0.0,88,0.00,,,0.03,Wunderground v.1.13,2013-02-24 09:08:00,
2013-02-24 04:13:00,32.2,29.3,29.88,North,349,0.0,0.0,89,0.00,,,0.03,Wunderground v.1.13,2013-02-24 09:13:00,
2013-02-24 04:18:00,32.1,29.2,29.88,North,349,0.0,0.0,89,0.00,,,0.03,Wunderground v.1.13,2013-02-24 09:18:00,
2013-02-24 04:23:00,32.1,29.2,29.88,North,349,0.0,0.0,89,0.00,,,0.03,Wunderground v.1.13,2013-02-24 09:23:00,
2013-02-24 04:29:00,32.1,29.2,29.88,North,349,0.0,0.0,89,0.00,,,0.03,Wunderground v.1.13,2013-02-24 09:29:00,
2013-02-24 04:34:00,32.2,29.3,29.88,North,349,0.0,0.0,89,0.00,,,0.03,Wunderground v.1.13,2013-02-24 09:34:00,
2013-02-24 04:39:00,32.4,29.5,29.88,North,349,0.0,0.0,89,0.00,,,0.03,Wunderground v.1.13,2013-02-24 09:39:00,
2013-02-24 04:44:00,32.4,29.5,29.88,North,349,0.0,0.0,89,0.00,,,0.03,Wunderground v.1.13,2013-02-24 09:44:00,
2013-02-24 04:49:00,32.5,29.6,29.89,North,349,0.0,0.0,89,0.00,,,0.03,Wunderground v.1.13,2013-02-24 09:49:00,
2013-02-24 04:54:00,32.4,29.2,29.89,North,349,0.0,0.0,88,0.00,,,0.03,Wunderground v.1.13,2013-02-24 09:54:00,
2013-02-24 04:59:00,32.3,29.1,29.89,North,349,0.0,0.0,88,0.00,,,0.03,Wunderground v.1.13,2013-02-24 09:59:00,
2013-02-24 05:04:00,32.3,29.4,29.89,North,349,0.0,0.0,89,0.00,,,0.03,Wunderground v.1.13,2013-02-24 10:04:00,
2013-02-24 05:09:00,32.3,29.4,29.89,North,349,0.0,0.0,89,0.00,,,0.03,Wunderground v.1.13,2013-02-24 10:09:00,
2013-02-24 05:14:00,32.3,29.1,29.89,North,349,0.0,0.0,88,0.00,,,0.04,Wunderground v.1.13,2013-02-24 10:14:00,
2013-02-24 05:19:00,32.2,29.3,29.89,North,349,0.0,0.0,89,0.00,,,0.04,Wunderground v.1.13,2013-02-24 10:19:00,
2013-02-24 05:24:00,32.1,28.9,29.89,North,349,0.0,0.0,88,0.00,,,0.04,Wunderground v.1.13,2013-02-24 10:24:00,
2013-02-24 05:29:00,32.0,30.7,29.89,North,349,0.0,0.0,95,0.00,,,0.04,Wunderground v.1.13,2013-02-24 10:29:00,
2013-02-24 05:34:00,31.9,29.0,29.89,North,349,0.0,0.0,89,0.00,,,0.04,Wunderground v.1.13,2013-02-24 10:34:00,
2013-02-24 05:39:00,31.9,29.0,29.88,North,349,0.0,0.0,89,0.00,,,0.04,Wunderground v.1.13,2013-02-24 10:39:00,
2013-02-24 05:44:00,31.8,28.9,29.88,North,349,0.0,0.0,89,0.00,,,0.04,Wunderground v.1.13,2013-02-24 10:44:00,
2013-02-24 05:49:00,31.7,28.8,29.88,North,349,0.0,0.0,89,0.00,,,0.04,Wunderground v.1.13,2013-02-24 10:49:00,
2013-02-24 05:54:00,31.6,28.7,29.88,North,349,0.0,0.0,89,0.00,,,0.04,Wunderground v.1.13,2013-02-24 10:54:00,
2013-02-24 06:00:00,31.6,28.7,29.88,North,349,0.0,0.0,89,0.00,,,0.04,Wunderground v.1.13,2013-02-24 11:00:00,
2013-02-24 06:05:00,31.6,28.7,29.88,North,349,0.0,0.0,89,0.00,,,0.04,Wunderground v.1.13,2013-02-24 11:05:00,
2013-02-24 06:10:00,31.7,29.1,29.88,North,349,0.0,0.0,90,0.00,,,0.04,Wunderground v.1.13,2013-02-24 11:10:00,
2013-02-24 06:15:00,31.9,29.3,29.88,North,349,0.0,0.0,90,0.00,,,0.04,Wunderground v.1.13,2013-02-24 11:15:00,
2013-02-24 06:20:00,32.1,29.5,29.88,North,349,0.0,0.0,90,0.00,,,0.04,Wunderground v.1.13,2013-02-24 11:20:00,
2013-02-24 06:25:00,32.2,29.3,29.88,North,349,0.0,0.0,89,0.00,,,0.04,Wunderground v.1.13,2013-02-24 11:25:00,
2013-02-24 06:30:00,32.0,29.1,29.88,North,349,0.0,0.0,89,0.00,,,0.04,Wunderground v.1.13,2013-02-24 11:30:00,
2013-02-24 06:35:00,31.8,28.9,29.88,North,349,0.0,0.0,89,0.00,,,0.04,Wunderground v.1.13,2013-02-24 11:35:00,
2013-02-24 06:40:00,31.7,28.8,29.88,North,349,0.0,0.0,89,0.00,,,0.04,Wunderground v.1.13,2013-02-24 11:40:00,
2013-02-24 06:45:00,31.7,28.8,29.88,North,349,0.0,0.0,89,0.00,,,0.04,Wunderground v.1.13,2013-02-24 11:45:00,
2013-02-24 06:50:00,31.8,28.9,29.88,North,349,0.0,0.0,89,0.00,,,0.04,Wunderground v.1.13,2013-02-24 11:50:00,
2013-02-24 06:55:00,31.7,28.8,29.88,North,349,0.0,0.0,89,0.00,,,0.04,Wunderground v.1.13,2013-02-24 11:55:00,
2013-02-24 07:00:00,31.6,28.7,29.88,North,349,0.0,0.0,89,0.00,,,0.04,Wunderground v.1.13,2013-02-24 12:00:00,
2013-02-24 07:06:00,31.5,28.6,29.87,North,349,0.0,0.0,89,0.00,,,0.04,Wunderground v.1.13,2013-02-24 12:06:00,
2013-02-24 07:11:00,31.5,28.6,29.87,North,349,0.0,0.0,89,0.00,,,0.04,Wunderground v.1.13,2013-02-24 12:11:00,
2013-02-24 07:16:00,31.6,29.0,29.87,North,349,0.0,0.0,90,0.00,,,0.04,Wunderground v.1.13,2013-02-24 12:16:00,
2013-02-24 07:22:00,31.7,29.1,29.87,North,349,0.0,0.0,90,0.00,,,0.04,Wunderground v.1.13,2013-02-24 12:22:00,
2013-02-24 07:27:00,32.0,29.4,29.87,North,349,0.0,0.0,90,0.00,,,0.04,Wunderground v.1.13,2013-02-24 12:27:00,
2013-02-24 07:32:00,32.3,29.7,29.87,North,349,0.0,0.0,90,0.00,,,0.04,Wunderground v.1.13,2013-02-24 12:32:00,
2013-02-24 07:38:00,32.5,29.9,29.87,North,349,0.0,0.0,90,0.00,,,0.04,Wunderground v.1.13,2013-02-24 12:38:00,
2013-02-24 07:42:00,32.6,29.7,29.86,North,349,0.0,0.0,89,0.00,,,0.04,Wunderground v.1.13,2013-02-24 12:42:00,
2013-02-24 07:47:00,32.8,29.9,29.87,North,349,0.0,0.0,89,0.00,,,0.04,Wunderground v.1.13,2013-02-24 12:47:00,
2013-02-24 07:52:00,33.0,30.1,29.87,North,349,0.0,0.0,89,0.00,,,0.04,Wunderground v.1.13,2013-02-24 12:52:00,
2013-02-24 07:58:00,33.4,30.5,29.87,North,349,0.0,0.0,89,0.00,,,0.04,Wunderground v.1.13,2013-02-24 12:58:00,
2013-02-24 08:03:00,33.7,30.8,29.87,North,349,0.0,0.0,89,0.00,,,0.04,Wunderground v.1.13,2013-02-24 13:03:00,
2013-02-24 08:08:00,34.0,31.1,29.87,North,349,0.0,0.0,89,0.00,,,0.04,Wunderground v.1.13,2013-02-24 13:08:00,
2013-02-24 08:13:00,34.2,31.0,29.86,North,349,0.0,0.0,88,0.00,,,0.04,Wunderground v.1.13,2013-02-24 13:13:00,
2013-02-24 08:18:00,34.0,30.5,29.86,North,349,0.0,0.0,87,0.00,,,0.04,Wunderground v.1.13,2013-02-24 13:18:00,
2013-02-24 08:23:00,34.1,30.9,29.86,North,349,0.0,0.0,88,0.00,,,0.04,Wunderground v.1.13,2013-02-24 13:23:00,
2013-02-24 08:28:00,34.4,31.2,29.86,North,349,0.0,0.0,88,0.00,,,0.04,Wunderground v.1.13,2013-02-24 13:28:00,
2013-02-24 08:33:00,34.7,31.5,29.86,North,349,0.0,0.0,88,0.00,,,0.04,Wunderground v.1.13,2013-02-24 13:33:00,
2013-02-24 08:39:00,35.0,31.5,29.86,North,349,0.0,0.0,87,0.00,,,0.04,Wunderground v.1.13,2013-02-24 13:39:00,
2013-02-24 08:44:00,35.2,31.4,29.86,North,349,0.0,0.0,86,0.00,,,0.04,Wunderground v.1.13,2013-02-24 13:44:00,
2013-02-24 08:49:00,35.3,31.5,29.86,North,349,0.0,0.0,86,0.00,,,0.04,Wunderground v.1.13,2013-02-24 13:49:00,
2013-02-24 08:54:00,35.6,31.5,29.86,North,349,0.0,0.0,85,0.00,,,0.04,Wunderground v.1.13,2013-02-24 13:54:00,
2013-02-24 08:59:00,35.4,31.0,29.85,North,349,0.0,0.0,84,0.00,,,0.04,Wunderground v.1.13,2013-02-24 13:59:00,
2013-02-24 09:04:00,35.4,31.0,29.85,North,349,0.0,0.0,84,0.00,,,0.04,Wunderground v.1.13,2013-02-24 14:04:00,
2013-02-24 09:09:00,35.1,30.8,29.85,North,349,0.0,0.0,84,0.00,,,0.04,Wunderground v.1.13,2013-02-24 14:09:00,
2013-02-24 09:15:00,34.9,30.6,29.84,North,349,0.0,0.0,84,0.00,,,0.04,Wunderground v.1.13,2013-02-24 14:15:00,
2013-02-24 09:20:00,34.9,30.8,29.84,North,349,0.0,0.0,85,0.00,,,0.04,Wunderground v.1.13,2013-02-24 14:20:00,
2013-02-24 09:25:00,35.1,31.3,29.84,North,349,0.0,0.0,86,0.00,,,0.04,Wunderground v.1.13,2013-02-24 14:25:00,
2013-02-24 09:30:00,35.0,30.9,29.84,North,349,0.0,0.0,85,0.00,,,0.05,Wunderground v.1.13,2013-02-24 14:30:00,
2013-02-24 09:35:00,35.2,31.4,29.84,North,349,0.0,0.0,86,0.00,,,0.05,Wunderground v.1.13,2013-02-24 14:35:00,
2013-02-24 09:40:00,35.5,31.4,29.84,North,355,0.0,0.0,85,0.00,,,0.05,Wunderground v.1.13,2013-02-24 14:40:00,
2013-02-24 09:45:00,35.3,30.9,29.84,North,360,0.0,0.0,84,0.00,,,0.05,Wunderground v.1.13,2013-02-24 14:45:00,
2013-02-24 09:50:00,35.5,31.7,29.84,North,5,0.0,0.0,86,0.00,,,0.05,Wunderground v.1.13,2013-02-24 14:50:00,
2013-02-24 09:55:00,35.5,31.1,29.83,North,360,0.0,0.0,84,0.00,,,0.05,Wunderground v.1.13,2013-02-24 14:55:00,
2013-02-24 10:00:00,35.5,31.1,29.83,North,5,0.0,0.0,84,0.00,,,0.05,Wunderground v.1.13,2013-02-24 15:00:00,
2013-02-24 10:06:00,35.5,30.8,29.83,North,360,0.0,0.0,83,0.00,,,0.05,Wunderground v.1.13,2013-02-24 15:06:00,
2013-02-24 10:11:00,35.5,31.1,29.83,North,360,0.0,0.0,84,0.00,,,0.05,Wunderground v.1.13,2013-02-24 15:11:00,
2013-02-24 10:16:00,35.5,31.1,29.83,SSE,149,0.0,2.0,84,0.00,,,0.05,Wunderground v.1.13,2013-02-24 15:16:00,
2013-02-24 10:21:00,35.6,31.2,29.83,SSE,149,0.0,0.0,84,0.00,,,0.05,Wunderground v.1.13,2013-02-24 15:21:00,
2013-02-24 10:26:00,35.4,30.8,29.83,WSW,253,0.0,0.0,83,0.00,,,0.05,Wunderground v.1.13,2013-02-24 15:26:00,
2013-02-24 10:31:00,35.5,31.1,29.83,WSW,253,0.0,0.0,84,0.00,,,0.05,Wunderground v.1.13,2013-02-24 15:31:00,
2013-02-24 10:36:00,35.6,31.2,29.83,WSW,253,0.0,1.0,84,0.00,,,0.05,Wunderground v.1.13,2013-02-24 15:36:00,
2013-02-24 10:41:00,35.9,31.5,29.83,WSW,254,0.0,0.0,84,0.00,,,0.05,Wunderground v.1.13,2013-02-24 15:41:00,
2013-02-24 10:46:00,36.0,31.3,29.83,WSW,254,0.0,0.0,83,0.00,,,0.05,Wunderground v.1.13,2013-02-24 15:46:00,
2013-02-24 10:51:00,36.2,31.8,29.83,WSW,253,0.0,0.0,84,0.00,,,0.05,Wunderground v.1.13,2013-02-24 15:51:00,
2013-02-24 10:56:00,36.5,31.8,29.83,WSW,254,0.0,0.0,83,0.00,,,0.05,Wunderground v.1.13,2013-02-24 15:56:00,
2013-02-24 11:01:00,36.6,31.6,29.83,WSW,254,3.0,3.0,82,0.00,,,0.05,Wunderground v.1.13,2013-02-24 16:01:00,
2013-02-24 11:07:00,36.1,30.8,29.82,WSW,251,0.0,3.0,81,0.00,,,0.05,Wunderground v.1.13,2013-02-24 16:07:00,
2013-02-24 11:12:00,35.7,30.7,29.82,WSW,258,1.0,2.0,82,0.00,,,0.05,Wunderground v.1.13,2013-02-24 16:12:00,
2013-02-24 11:17:00,35.4,30.8,29.82,WSW,252,2.0,2.0,83,0.00,,,0.05,Wunderground v.1.13,2013-02-24 16:17:00,
2013-02-24 11:22:00,35.4,31.0,29.82,WSW,252,0.0,1.0,84,0.00,,,0.05,Wunderground v.1.13,2013-02-24 16:22:00,
2013-02-24 11:27:00,35.8,31.4,29.82,WSW,252,0.0,0.0,84,0.00,,,0.05,Wunderground v.1.13,2013-02-24 16:27:00,
2013-02-24 11:32:00,36.2,31.5,29.82,SW,223,0.0,2.0,83,0.00,,,0.05,Wunderground v.1.13,2013-02-24 16:32:00,
2013-02-24 11:38:00,35.9,30.6,29.82,West,261,0.0,3.0,81,0.00,,,0.05,Wunderground v.1.13,2013-02-24 16:38:00,
2013-02-24 11:43:00,35.7,31.0,29.82,West,261,0.0,2.0,83,0.00,,,0.05,Wunderground v.1.13,2013-02-24 16:43:00,
2013-02-24 11:48:00,35.8,31.4,29.82,West,262,0.0,0.0,84,0.00,,,0.05,Wunderground v.1.13,2013-02-24 16:48:00,
2013-02-24 11:53:00,36.0,31.6,29.82,West,261,0.0,0.0,84,0.00,,,0.05,Wunderground v.1.13,2013-02-24 16:53:00,
2013-02-24 11:58:00,36.2,31.5,29.82,West,262,0.0,0.0,83,0.00,,,0.05,Wunderground v.1.13,2013-02-24 16:58:00,
2013-02-24 12:03:00,35.9,30.9,29.82,West,262,0.0,2.0,82,0.00,,,0.05,Wunderground v.1.13,2013-02-24 17:03:00,
2013-02-24 12:08:00,35.9,31.2,29.82,West,262,0.0,0.0,83,0.00,,,0.05,Wunderground v.1.13,2013-02-24 17:08:00,
2013-02-24 12:13:00,36.1,31.7,29.82,West,262,0.0,0.0,84,0.00,,,0.05,Wunderground v.1.13,2013-02-24 17:13:00,
2013-02-24 12:18:00,36.4,32.0,29.82,West,262,0.0,0.0,84,0.00,,,0.05,Wunderground v.1.13,2013-02-24 17:18:00,
2013-02-24 12:23:00,36.1,31.4,29.81,West,262,0.0,2.0,83,0.00,,,0.05,Wunderground v.1.13,2013-02-24 17:23:00,
2013-02-24 12:28:00,35.5,30.8,29.81,WSW,256,2.0,3.0,83,0.00,,,0.05,Wunderground v.1.13,2013-02-24 17:28:00,
2013-02-24 12:33:00,35.3,30.9,29.81,WSW,256,0.0,1.0,84,0.00,,,0.05,Wunderground v.1.13,2013-02-24 17:33:00,
2013-02-24 12:38:00,35.4,30.8,29.81,WSW,256,0.0,1.0,83,0.00,,,0.05,Wunderground v.1.13,2013-02-24 17:38:00,
2013-02-24 12:43:00,35.5,30.8,29.81,WSW,256,0.0,1.0,83,0.00,,,0.05,Wunderground v.1.13,2013-02-24 17:43:00,
2013-02-24 12:48:00,35.3,30.9,29.81,WSW,256,0.0,2.0,84,0.00,,,0.05,Wunderground v.1.13,2013-02-24 17:48:00,
2013-02-24 12:53:00,35.2,30.9,29.80,WSW,256,0.0,0.0,84,0.00,,,0.05,Wunderground v.1.13,2013-02-24 17:53:00,
2013-02-24 12:58:00,35.3,30.9,29.80,WSW,256,0.0,0.0,84,0.00,,,0.05,Wunderground v.1.13,2013-02-24 17:58:00,
2013-02-24 13:03:00,35.6,31.2,29.80,WSW,256,0.0,0.0,84,0.00,,,0.05,Wunderground v.1.13,2013-02-24 18:03:00,
2013-02-24 13:08:00,35.9,31.5,29.80,WSW,256,1.0,1.0,84,0.00,,,0.05,Wunderground v.1.13,2013-02-24 18:08:00,
2013-02-24 13:13:00,36.1,31.7,29.80,WSW,256,0.0,0.0,84,0.00,,,0.05,Wunderground v.1.13,2013-02-24 18:13:00,
2013-02-24 13:18:00,36.0,31.6,29.80,WSW,256,0.0,1.0,84,0.00,,,0.05,Wunderground v.1.13,2013-02-24 18:18:00,
2013-02-24 13:23:00,36.2,31.8,29.80,WSW,257,0.0,0.0,84,0.00,,,0.05,Wunderground v.1.13,2013-02-24 18:23:00,
2013-02-24 13:28:00,36.2,31.8,29.80,WSW,257,0.0,0.0,84,0.00,,,0.05,Wunderground v.1.13,2013-02-24 18:28:00,
2013-02-24 13:33:00,36.2,31.8,29.80,WSW,257,0.0,1.0,84,0.00,,,0.05,Wunderground v.1.13,2013-02-24 18:33:00,
2013-02-24 13:38:00,36.0,31.6,29.80,WSW,256,0.0,1.0,84,0.00,,,0.05,Wunderground v.1.13,2013-02-24 18:38:00,
2013-02-24 13:43:00,35.7,31.3,29.80,WSW,257,0.0,0.0,84,0.00,,,0.05,Wunderground v.1.13,2013-02-24 18:43:00,
2013-02-24 13:48:00,35.6,31.2,29.79,WSW,256,0.0,0.0,84,0.00,,,0.05,Wunderground v.1.13,2013-02-24 18:48:00,
2013-02-24 13:53:00,35.9,31.8,29.79,WSW,257,0.0,0.0,85,0.00,,,0.05,Wunderground v.1.13,2013-02-24 18:53:00,
2013-02-24 13:58:00,36.2,32.1,29.79,WSW,257,0.0,0.0,85,0.00,,,0.06,Wunderground v.1.13,2013-02-24 18:58:00,
2013-02-24 14:03:00,36.4,32.3,29.79,WSW,257,0.0,0.0,85,0.00,,,0.06,Wunderground v.1.13,2013-02-24 19:03:00,
2013-02-24 14:08:00,36.7,32.6,29.79,WSW,256,0.0,0.0,85,0.00,,,0.06,Wunderground v.1.13,2013-02-24 19:08:00,
2013-02-24 14:13:00,36.9,32.8,29.79,WSW,257,0.0,0.0,85,0.00,,,0.06,Wunderground v.1.13,2013-02-24 19:13:00,
2013-02-24 14:18:00,37.1,32.7,29.79,WSW,256,0.0,0.0,84,0.00,,,0.06,Wunderground v.1.13,2013-02-24 19:18:00,
2013-02-24 14:24:00,37.2,32.8,29.79,WSW,256,0.0,0.0,84,0.00,,,0.06,Wunderground v.1.13,2013-02-24 19:24:00,
2013-02-24 14:29:00,37.4,33.0,29.79,WSW,257,0.0,0.0,84,0.00,,,0.06,Wunderground v.1.13,2013-02-24 19:29:00,
2013-02-24 14:33:00,37.4,32.7,29.79,WSW,257,0.0,0.0,83,0.00,,,0.06,Wunderground v.1.13,2013-02-24 19:33:00,
2013-02-24 14:39:00,37.2,32.8,29.79,WSW,257,0.0,0.0,84,0.00,,,0.06,Wunderground v.1.13,2013-02-24 19:39:00,
2013-02-24 14:44:00,36.9,32.5,29.79,WSW,257,0.0,0.0,84,0.00,,,0.06,Wunderground v.1.13,2013-02-24 19:44:00,
2013-02-24 14:49:00,36.6,32.2,29.79,WSW,257,0.0,0.0,84,0.00,,,0.06,Wunderground v.1.13,2013-02-24 19:49:00,
2013-02-24 14:54:00,36.4,32.3,29.79,WSW,256,0.0,0.0,85,0.00,,,0.06,Wunderground v.1.13,2013-02-24 19:54:00,
2013-02-24 14:59:00,36.4,32.3,29.79,NNW,333,0.0,2.0,85,0.00,,,0.06,Wunderground v.1.13,2013-02-24 19:59:00,
2013-02-24 15:05:00,36.3,32.2,29.79,NNW,333,0.0,0.0,85,0.00,,,0.06,Wunderground v.1.13,2013-02-24 20:05:00,
2013-02-24 15:10:00,36.1,32.3,29.79,North,5,0.0,0.0,86,0.00,,,0.07,Wunderground v.1.13,2013-02-24 20:10:00,
2013-02-24 15:15:00,35.9,32.1,29.80,North,360,1.0,1.0,86,0.00,,,0.07,Wunderground v.1.13,2013-02-24 20:15:00,
2013-02-24 15:20:00,35.8,32.0,29.80,North,360,0.0,0.0,86,0.00,,,0.07,Wunderground v.1.13,2013-02-24 20:20:00,
2013-02-24 15:25:00,35.5,31.7,29.80,North,360,0.0,0.0,86,0.00,,,0.07,Wunderground v.1.13,2013-02-24 20:25:00,
2013-02-24 15:30:00,35.4,31.9,29.80,NNW,341,0.0,0.0,87,0.00,,,0.07,Wunderground v.1.13,2013-02-24 20:30:00,
2013-02-24 15:35:00,35.3,31.8,29.80,ENE,58,0.0,0.0,87,0.00,,,0.07,Wunderground v.1.13,2013-02-24 20:35:00,
2013-02-24 15:40:00,35.1,31.6,29.80,NE,40,1.0,2.0,87,0.00,,,0.07,Wunderground v.1.13,2013-02-24 20:40:00,
2013-02-24 15:45:00,35.0,31.5,29.80,NE,40,0.0,0.0,87,0.00,,,0.07,Wunderground v.1.13,2013-02-24 20:45:00,
2013-02-24 15:50:00,34.9,31.7,29.80,NE,40,0.0,0.0,88,0.00,,,0.07,Wunderground v.1.13,2013-02-24 20:50:00,
2013-02-24 15:55:00,34.9,31.7,29.80,NE,40,0.0,0.0,88,0.00,,,0.07,Wunderground v.1.13,2013-02-24 20:55:00,
2013-02-24 16:00:00,34.9,31.7,29.80,NE,39,0.0,0.0,88,0.00,,,0.07,Wunderground v.1.13,2013-02-24 21:00:00,
2013-02-24 16:05:00,34.9,31.7,29.79,NE,39,0.0,0.0,88,0.00,,,0.07,Wunderground v.1.13,2013-02-24 21:05:00,
2013-02-24 16:10:00,35.0,31.8,29.79,NE,40,0.0,0.0,88,0.00,,,0.07,Wunderground v.1.13,2013-02-24 21:10:00,
2013-02-24 16:15:00,35.0,31.8,29.79,NE,38,0.0,0.0,88,0.00,,,0.07,Wunderground v.1.13,2013-02-24 21:15:00,
2013-02-24 16:20:00,35.0,31.8,29.80,NE,40,0.0,0.0,88,0.00,,,0.07,Wunderground v.1.13,2013-02-24 21:20:00,
2013-02-24 16:25:00,34.9,31.7,29.80,NE,39,0.0,0.0,88,0.00,,,0.07,Wunderground v.1.13,2013-02-24 21:25:00,
2013-02-24 16:30:00,35.0,31.8,29.80,NE,39,0.0,0.0,88,0.00,,,0.07,Wunderground v.1.13,2013-02-24 21:30:00,
2013-02-24 16:36:00,34.9,31.7,29.80,NE,40,0.0,0.0,88,0.00,,,0.07,Wunderground v.1.13,2013-02-24 21:36:00,
2013-02-24 16:41:00,35.0,31.8,29.80,NE,40,0.0,0.0,88,0.00,,,0.07,Wunderground v.1.13,2013-02-24 21:41:00,
2013-02-24 16:46:00,34.8,31.6,29.80,SSE,167,0.0,0.0,88,0.00,,,0.07,Wunderground v.1.13,2013-02-24 21:46:00,
2013-02-24 16:51:00,34.6,31.4,29.80,SSE,167,0.0,0.0,88,0.00,,,0.07,Wunderground v.1.13,2013-02-24 21:51:00,
2013-02-24 16:56:00,34.4,31.2,29.81,SSE,167,0.0,0.0,88,0.00,,,0.07,Wunderground v.1.13,2013-02-24 21:56:00,
2013-02-24 17:01:00,34.4,31.2,29.81,East,94,0.0,0.0,88,0.00,,,0.07,Wunderground v.1.13,2013-02-24 22:01:00,
2013-02-24 17:06:00,34.4,31.5,29.81,East,95,0.0,0.0,89,0.00,,,0.07,Wunderground v.1.13,2013-02-24 22:06:00,
2013-02-24 17:11:00,34.4,31.5,29.81,East,95,0.0,0.0,89,0.00,,,0.07,Wunderground v.1.13,2013-02-24 22:11:00,
2013-02-24 17:16:00,34.3,31.4,29.81,ESE,117,0.0,0.0,89,0.00,,,0.07,Wunderground v.1.13,2013-02-24 22:16:00,
2013-02-24 17:21:00,34.3,31.4,29.81,ESE,116,1.0,1.0,89,0.00,,,0.08,Wunderground v.1.13,2013-02-24 22:21:00,
2013-02-24 17:26:00,34.1,31.2,29.81,NE,52,1.0,2.0,89,0.00,,,0.08,Wunderground v.1.13,2013-02-24 22:26:00,
2013-02-24 17:31:00,34.1,31.2,29.82,NE,52,0.0,1.0,89,0.00,,,0.08,Wunderground v.1.13,2013-02-24 22:31:00,
2013-02-24 17:37:00,34.0,31.1,29.82,West,260,0.0,2.0,89,0.00,,,0.08,Wunderground v.1.13,2013-02-24 22:37:00,
2013-02-24 17:42:00,33.9,31.0,29.82,WSW,254,0.0,0.0,89,0.00,,,0.08,Wunderground v.1.13,2013-02-24 22:42:00,
2013-02-24 17:47:00,34.0,31.4,29.82,WSW,254,0.0,1.0,90,0.00,,,0.08,Wunderground v.1.13,2013-02-24 22:47:00,
2013-02-24 17:52:00,33.9,31.3,29.82,WSW,254,0.0,0.0,90,0.00,,,0.08,Wunderground v.1.13,2013-02-24 22:52:00,
2013-02-24 17:57:00,33.9,31.3,29.83,WSW,255,0.0,1.0,90,0.00,,,0.08,Wunderground v.1.13,2013-02-24 22:57:00,
2013-02-24 18:02:00,33.9,31.3,29.83,WSW,254,0.0,1.0,90,0.00,,,0.08,Wunderground v.1.13,2013-02-24 23:02:00,
2013-02-24 18:07:00,33.9,31.3,29.83,WSW,255,0.0,0.0,90,0.00,,,0.08,Wunderground v.1.13,2013-02-24 23:07:00,
2013-02-24 18:12:00,33.9,31.3,29.83,WSW,254,0.0,0.0,90,0.00,,,0.08,Wunderground v.1.13,2013-02-24 23:12:00,
2013-02-24 18:18:00,33.8,31.2,29.84,ESE,119,0.0,2.0,90,0.00,,,0.08,Wunderground v.1.13,2013-02-24 23:18:00,
2013-02-24 18:23:00,33.7,31.1,29.84,NNW,342,2.0,5.0,90,0.00,,,0.08,Wunderground v.1.13,2013-02-24 23:23:00,
2013-02-24 18:28:00,33.4,30.8,29.84,West,279,0.0,4.0,90,0.00,,,0.08,Wunderground v.1.13,2013-02-24 23:28:00,
2013-02-24 18:33:00,33.3,30.4,29.84,NE,37,2.0,5.0,89,0.00,,,0.08,Wunderground v.1.13,2013-02-24 23:33:00,
2013-02-24 18:38:00,33.1,30.2,29.84,NE,51,1.0,1.0,89,0.00,,,0.08,Wunderground v.1.13,2013-02-24 23:38:00,
2013-02-24 18:43:00,33.0,30.1,29.85,NNW,330,0.0,4.0,89,0.00,,,0.08,Wunderground v.1.13,2013-02-24 23:43:00,
2013-02-24 18:48:00,32.9,30.0,29.85,NNE,29,0.0,5.0,89,0.00,,,0.08,Wunderground v.1.13,2013-02-24 23:48:00,
2013-02-24 18:53:00,32.8,29.9,29.85,NE,34,0.0,3.0,89,0.00,,,0.08,Wunderground v.1.13,2013-02-24 23:53:00,
2013-02-24 18:58:00,32.8,29.9,29.85,NW,326,2.0,3.0,89,0.00,,,0.08,Wunderground v.1.13,2013-02-24 23:58:00,
2013-02-24 19:03:00,32.7,29.8,29.86,NNE,25,0.0,2.0,89,0.00,,,0.08,Wunderground v.1.13,2013-02-25 00:03:00,
2013-02-24 19:08:00,32.6,29.7,29.86,NNW,331,1.0,5.0,89,0.00,,,0.08,Wunderground v.1.13,2013-02-25 00:08:00,
2013-02-24 19:13:00,32.3,29.1,29.86,NW,306,2.0,3.0,88,0.00,,,0.08,Wunderground v.1.13,2013-02-25 00:13:00,
2013-02-24 19:18:00,32.1,28.9,29.87,NNE,23,1.0,5.0,88,0.00,,,0.08,Wunderground v.1.13,2013-02-25 00:18:00,
2013-02-24 19:23:00,31.9,28.8,29.87,ENE,73,2.0,4.0,88,0.00,,,0.08,Wunderground v.1.13,2013-02-25 00:23:00,
2013-02-24 19:28:00,31.8,28.7,29.87,NNW,340,3.0,4.0,88,0.00,,,0.08,Wunderground v.1.13,2013-02-25 00:28:00,
2013-02-24 19:33:00,31.7,28.6,29.88,NNE,30,0.0,2.0,88,0.00,,,0.08,Wunderground v.1.13,2013-02-25 00:33:00,
2013-02-24 19:38:00,31.6,28.5,29.88,West,274,0.0,4.0,88,0.00,,,0.08,Wunderground v.1.13,2013-02-25 00:38:00,
2013-02-24 19:43:00,31.6,28.5,29.88,NW,324,0.0,3.0,88,0.00,,,0.08,Wunderground v.1.13,2013-02-25 00:43:00,
2013-02-24 19:48:00,31.5,28.6,29.89,West,273,0.0,2.0,89,0.00,,,0.08,Wunderground v.1.13,2013-02-25 00:48:00,
2013-02-24 19:53:00,31.5,28.6,29.89,WNW,284,0.0,3.0,89,0.00,,,0.08,Wunderground v.1.13,2013-02-25 00:53:00,
2013-02-24 19:59:00,31.5,28.6,29.89,NW,306,0.0,3.0,89,0.00,,,0.08,Wunderground v.1.13,2013-02-25 00:59:00,
2013-02-24 20:04:00,31.4,28.5,29.89,ENE,67,0.0,3.0,89,0.00,,,0.08,Wunderground v.1.13,2013-02-25 01:04:00,
2013-02-24 20:09:00,31.2,28.1,29.89,North,5,1.0,3.0,88,0.00,,,0.08,Wunderground v.1.13,2013-02-25 01:09:00,
2013-02-24 20:14:00,31.2,28.1,29.90,ESE,111,2.0,4.0,88,0.00,,,0.08,Wunderground v.1.13,2013-02-25 01:14:00,
2013-02-24 20:19:00,31.1,28.0,29.90,NW,306,0.0,6.0,88,0.00,,,0.08,Wunderground v.1.13,2013-02-25 01:19:00,
2013-02-24 20:24:00,31.0,27.9,29.90,ENE,67,1.0,4.0,88,0.00,,,0.08,Wunderground v.1.13,2013-02-25 01:24:00,
2013-02-24 20:29:00,30.9,27.8,29.90,ENE,69,0.0,6.0,88,0.00,,,0.08,Wunderground v.1.13,2013-02-25 01:29:00,
2013-02-24 20:34:00,30.8,27.7,29.90,NNE,30,0.0,7.0,88,0.00,,,0.08,Wunderground v.1.13,2013-02-25 01:34:00,
2013-02-24 20:40:00,30.8,27.7,29.91,North,5,0.0,2.0,88,0.00,,,0.08,Wunderground v.1.13,2013-02-25 01:40:00,
2013-02-24 20:45:00,30.7,27.6,29.91,NNE,29,0.0,1.0,88,0.00,,,0.08,Wunderground v.1.13,2013-02-25 01:45:00,
2013-02-24 20:50:00,30.7,27.6,29.91,North,11,1.0,5.0,88,0.00,,,0.08,Wunderground v.1.13,2013-02-25 01:50:00,
2013-02-24 20:55:00,30.6,27.5,29.91,SSE,163,1.0,2.0,88,0.00,,,0.08,Wunderground v.1.13,2013-02-25 01:55:00,
2013-02-24 21:00:00,30.6,27.5,29.92,ENE,73,2.0,2.0,88,0.00,,,0.08,Wunderground v.1.13,2013-02-25 02:00:00,
2013-02-24 21:05:00,30.6,27.5,29.92,ENE,70,1.0,4.0,88,0.00,,,0.08,Wunderground v.1.13,2013-02-25 02:05:00,
2013-02-24 21:10:00,30.6,27.5,29.92,NNE,30,4.0,4.0,88,0.00,,,0.08,Wunderground v.1.13,2013-02-25 02:10:00,
2013-02-24 21:15:00,30.6,27.5,29.92,NNE,30,2.0,2.0,88,0.00,,,0.08,Wunderground v.1.13,2013-02-25 02:15:00,
2013-02-24 21:21:00,30.5,27.4,29.92,ENE,78,1.0,1.0,88,0.00,,,0.08,Wunderground v.1.13,2013-02-25 02:21:00,
2013-02-24 21:26:00,30.5,27.4,29.92,South,173,0.0,1.0,88,0.00,,,0.08,Wunderground v.1.13,2013-02-25 02:26:00,
2013-02-24 21:31:00,30.5,27.4,29.92,NNE,13,2.0,2.0,88,0.00,,,0.08,Wunderground v.1.13,2013-02-25 02:31:00,
2013-02-24 21:36:00,30.5,27.4,29.92,NNE,23,0.0,2.0,88,0.00,,,0.08,Wunderground v.1.13,2013-02-25 02:36:00,
2013-02-24 21:41:00,30.4,27.5,29.92,NNE,23,0.0,1.0,89,0.00,,,0.08,Wunderground v.1.13,2013-02-25 02:41:00,
2013-02-24 21:46:00,30.4,27.5,29.92,ESE,107,1.0,2.0,89,0.00,,,0.08,Wunderground v.1.13,2013-02-25 02:46:00,
2013-02-24 21:51:00,30.4,27.5,29.92,NE,37,0.0,2.0,89,0.00,,,0.08,Wunderground v.1.13,2013-02-25 02:51:00,
2013-02-24 21:56:00,30.4,27.5,29.92,NE,51,1.0,3.0,89,0.00,,,0.08,Wunderground v.1.13,2013-02-25 02:56:00,
2013-02-24 22:01:00,30.4,27.5,29.92,WNW,301,2.0,5.0,89,0.00,,,0.08,Wunderground v.1.13,2013-02-25 03:01:00,
2013-02-24 22:06:00,30.4,27.5,29.92,NE,41,0.0,2.0,89,0.00,,,0.08,Wunderground v.1.13,2013-02-25 03:06:00,
2013-02-24 22:11:00,30.4,27.5,29.92,NNE,19,0.0,1.0,89,0.00,,,0.08,Wunderground v.1.13,2013-02-25 03:11:00,
2013-02-24 22:16:00,30.3,27.4,29.92,NE,43,3.0,3.0,89,0.00,,,0.08,Wunderground v.1.13,2013-02-25 03:16:00,
2013-02-24 22:21:00,30.3,27.4,29.92,NE,38,0.0,1.0,89,0.00,,,0.08,Wunderground v.1.13,2013-02-25 03:21:00,
2013-02-24 22:26:00,30.3,27.4,29.93,NE,41,3.0,3.0,89,0.00,,,0.08,Wunderground v.1.13,2013-02-25 03:26:00,
2013-02-24 22:31:00,30.2,27.3,29.93,NE,46,0.0,1.0,89,0.00,,,0.08,Wunderground v.1.13,2013-02-25 03:31:00,
2013-02-24 22:36:00,30.2,27.3,29.93,NE,48,1.0,2.0,89,0.00,,,0.08,Wunderground v.1.13,2013-02-25 03:36:00,
2013-02-24 22:41:00,30.2,27.3,29.93,NNE,24,0.0,3.0,89,0.00,,,0.08,Wunderground v.1.13,2013-02-25 03:41:00,
2013-02-24 22:46:00,30.2,27.3,29.93,ENE,67,0.0,1.0,89,0.00,,,0.08,Wunderground v.1.13,2013-02-25 03:46:00,
2013-02-24 22:51:00,30.1,27.3,29.93,North,355,3.0,4.0,89,0.00,,,0.08,Wunderground v.1.13,2013-02-25 03:51:00,
2013-02-24 22:56:00,30.1,27.3,29.93,East,96,1.0,1.0,89,0.00,,,0.08,Wunderground v.1.13,2013-02-25 03:56:00,
2013-02-24 23:01:00,30.1,27.3,29.93,East,82,0.0,2.0,89,0.00,,,0.08,Wunderground v.1.13,2013-02-25 04:01:00,
2013-02-24 23:06:00,30.0,27.2,29.93,NNW,331,3.0,4.0,89,0.00,,,0.08,Wunderground v.1.13,2013-02-25 04:06:00,
2013-02-24 23:11:00,30.0,27.2,29.93,NNW,337,0.0,1.0,89,0.00,,,0.08,Wunderground v.1.13,2013-02-25 04:11:00,
2013-02-24 23:16:00,29.9,27.1,29.94,NNE,30,0.0,2.0,89,0.00,,,0.08,Wunderground v.1.13,2013-02-25 04:16:00,
2013-02-24 23:21:00,29.9,27.1,29.94,NNE,30,1.0,2.0,89,0.00,,,0.08,Wunderground v.1.13,2013-02-25 04:21:00,
2013-02-24 23:26:00,29.9,27.1,29.94,ENE,64,0.0,3.0,89,0.00,,,0.08,Wunderground v.1.13,2013-02-25 04:26:00,
2013-02-24 23:31:00,29.9,27.1,29.94,ENE,63,1.0,1.0,89,0.00,,,0.08,Wunderground v.1.13,2013-02-25 04:31:00,
2013-02-24 23:36:00,30.1,27.3,29.94,North,10,0.0,1.0,89,0.00,,,0.08,Wunderground v.1.13,2013-02-25 04:36:00,
2013-02-24 23:42:00,30.2,27.3,29.94,NE,43,0.0,2.0,89,0.00,,,0.08,Wunderground v.1.13,2013-02-25 04:42:00,
2013-02-24 23:47:00,30.2,27.3,29.95,SE,132,0.0,2.0,89,0.00,,,0.08,Wunderground v.1.13,2013-02-25 04:47:00,
2013-02-24 23:52:00,30.3,27.2,29.95,NW,322,3.0,4.0,88,0.00,,,0.08,Wunderground v.1.13,2013-02-25 04:52:00,
2013-02-24 23:57:00,30.4,27.3,29.95,NE,38,2.0,4.0,88,0.00,,,0.08,Wunderground v.1.13,2013-02-25 04:57:00,